TimePDT,TemperatureF,Dew PointF,Humidity,Sea Level PressureIn,VisibilityMPH,Wind Direction,Wind SpeedMPH,Gust SpeedMPH,PrecipitationIn,Events,Conditions,WindDirDegrees,DateUTC
12:53 AM,51.1,44.1,77,29.82,6.0,South,11.5,-,0.03,Rain,Light Rain,190,2014-04-24 07:53:00
1:53 AM,51.1,44.1,77,29.80,4.0,SSE,13.8,-,0.06,Rain,Rain,150,2014-04-24 08:53:00
2:53 AM,52.0,44.1,74,29.79,3.0,South,13.8,-,0.06,Rain,Rain,170,2014-04-24 09:53:00
3:53 AM,52.0,44.1,74,29.76,6.0,SSE,15.0,-,0.07,Rain,Light Rain,150,2014-04-24 10:53:00
4:53 AM,53.1,44.1,71,29.78,4.0,South,18.4,-,0.04,Rain,Rain,180,2014-04-24 11:53:00
5:53 AM,51.1,46.0,83,29.80,4.0,South,10.4,-,0.07,Rain,Light Rain,190,2014-04-24 12:53:00
6:53 AM,51.1,45.0,80,29.81,5.0,South,11.5,-,0.06,Rain,Light Rain,180,2014-04-24 13:53:00
7:53 AM,50.0,46.0,86,29.81,3.0,South,12.7,-,0.09,Rain,Light Rain,180,2014-04-24 14:53:00
8:53 AM,54.0,43.0,66,29.80,7.0,South,10.4,-,0.01,Rain,Light Rain,180,2014-04-24 15:53:00
9:53 AM,57.0,44.1,62,29.81,10.0,South,16.1,-,0.00,,Scattered Clouds,170,2014-04-24 16:53:00
10:53 AM,60.1,44.1,55,29.80,10.0,SSW,16.1,-,N/A,,Scattered Clouds,210,2014-04-24 17:53:00
11:07 AM,57.9,43.0,58,29.79,10.0,SSW,23.0,29.9,0.00,Rain-Thunderstorm,Light Thunderstorms and Rain,200,2014-04-24 18:07:00
11:46 AM,54.0,46.9,77,29.83,8.0,SSW,6.9,17.3,0.06,Rain-Thunderstorm,Light Rain,210,2014-04-24 18:46:00
11:53 AM,54.0,46.9,77,29.84,7.0,South,9.2,-,0.06,Rain,Light Rain,180,2014-04-24 18:53:00
12:53 PM,57.0,46.0,67,29.83,10.0,SSE,10.4,-,0.00,,Mostly Cloudy,160,2014-04-24 19:53:00
1:53 PM,60.1,46.0,60,29.82,10.0,SSW,10.4,-,N/A,,Partly Cloudy,200,2014-04-24 20:53:00
2:53 PM,60.1,46.0,60,29.83,10.0,WSW,13.8,-,N/A,,Mostly Cloudy,240,2014-04-24 21:53:00
3:53 PM,59.0,44.1,58,29.83,10.0,South,18.4,-,N/A,,Scattered Clouds,180,2014-04-24 22:53:00
4:53 PM,59.0,42.1,53,29.83,10.0,SSW,17.3,-,N/A,,Partly Cloudy,200,2014-04-24 23:53:00
5:53 PM,57.9,44.1,60,29.83,10.0,South,12.7,-,N/A,,Partly Cloudy,180,2014-04-25 00:53:00
6:53 PM,57.9,43.0,58,29.83,10.0,South,8.1,-,N/A,,Scattered Clouds,180,2014-04-25 01:53:00
7:53 PM,55.9,37.9,51,29.84,10.0,SSW,9.2,-,N/A,,Scattered Clouds,210,2014-04-25 02:53:00
8:53 PM,53.1,39.9,61,29.85,10.0,South,9.2,-,N/A,,Mostly Cloudy,180,2014-04-25 03:53:00
9:53 PM,51.1,42.1,71,29.86,10.0,SSW,9.2,-,N/A,,Overcast,210,2014-04-25 04:53:00
10:53 PM,52.0,37.9,59,29.86,10.0,SSW,12.7,-,N/A,,Mostly Cloudy,210,2014-04-25 05:53:00
11:53 PM,51.1,39.9,66,29.86,10.0,South,6.9,-,N/A,,Overcast,170,2014-04-25 06:53:00